User: anonymous   Login
Location: �clusier
(49.9361°N, 2.7869°E)
Time: 22:07:20
(UTC+00:00)
Language:

Cosmos 1503 Rocket - Orbit

View from above orbital plane
View from above orbital plane
View from above satellite
View from above satellite

Ground track
Ground track

The orbit data is extracted from the following two-line orbital elements,

1 14402U 83103B   21269.37702899 -.00000079  00000-0 -18118-4 0  9992
2 14402  74.0421 267.5122 0025589  83.8654 276.5414 14.36028216986239
Epoch (UTC): 26 September 2021 09:02:55
Eccentricity: 0.0025589
inclination: 74.0421°
perigee height: 753 km
apogee height: 790 km
right ascension of ascending node: 267.5122°
argument of perigee: 83.8654°
revolutions per day: 14.36028216
mean anomaly at epoch: 276.5414°
orbit number at epoch: 98623

The dashed part of the orbit path shows where the satellite is in the earth's shadow,  

DLR